Theta_e
316 317 320 329 334 338 342 346 342 344 345 343 345 346 345 347 347 347 347 347 346 346 347 346 343 344 342 344 341 340 348 347 347 347 345 346 345 344 345 344 343 343 343 342 342 342 342 341 339 340 339 339 339 338 338 338 338 337 336 334 333 333 334 334 333 332 332 331 333 337 338 337 336 336 334 332 332 332 335 331 333 327 326 330 333
315 319 322 325 334 338 343 345 345 344 343 342 342 346 346 344 345 347 347 347 346 346 347 345 343 343 342 344 343 342 342 342 348 347 346 346 346 345 344 343 343 343 342 342 342 342 342 340 340 339 339 339 339 338 338 337 336 335 335 335 336 337 335 335 337 336 336 336 335 335 333 330 333 337 336 334 332 329 333 330 333 326 324 334 337
318 322 322 322 334 340 343 346 345 343 344 342 342 343 346 345 345 347 347 347 347 346 346 346 346 344 344 343 343 342 342 341 341 345 345 346 343 342 343 343 342 341 342 341 341 341 341 340 339 338 338 338 339 338 338 336 335 335 335 336 336 335 334 334 334 335 336 335 334 336 336 334 333 335 335 335 332 329 334 332 332 333 326 332 331
317 320 321 322 330 339 343 345 344 343 342 344 344 345 345 344 343 343 346 347 348 347 346 346 345 344 344 344 341 340 340 341 341 343 343 342 340 341 341 343 342 342 341 341 340 340 340 340 339 337 336 336 337 337 336 335 335 336 336 336 336 335 334 335 334 335 335 334 334 334 328 321 327 328 330 335 334 331 333 330 332 333 333 332 334
316 317 319 321 321 332 337 342 345 342 341 342 343 346 345 345 345 341 345 345 346 346 346 346 345 344 345 345 344 344 344 345 346 344 344 344 342 342 341 344 343 341 341 341 340 339 340 339 338 337 336 336 337 337 336 335 335 336 335 335 334 334 336 336 334 334 335 333 333 331 320 324 324 330 330 331 332 332 332 332 331 330 332 334 333
315 316 318 319 321 322 335 340 343 344 343 341 341 344 342 343 344 344 344 345 346 344 344 343 346 346 345 345 345 345 346 346 345 345 346 345 342 342 340 341 344 343 340 341 340 340 339 339 338 336 336 336 336 336 335 335 334 334 333 333 334 335 336 335 334 334 336 333 334 324 323 326 328 330 332 330 331 334 332 332 329 331 331 331 334
314 314 317 318 319 323 333 337 341 344 345 346 345 344 345 344 343 344 344 346 345 344 344 343 344 345 346 347 346 346 346 346 346 346 345 344 343 343 338 341 343 343 341 342 340 340 339 339 338 336 336 335 336 335 335 334 333 333 333 335 336 336 336 335 335 336 334 329 323 323 324 326 329 329 333 331 329 329 328 330 328 328 330 332 332
314 312 315 316 318 324 331 334 337 340 344 345 346 347 345 344 344 341 346 346 345 343 344 343 342 345 346 347 346 346 346 345 345 344 344 345 344 343 340 339 341 342 340 341 341 340 339 338 338 338 335 335 335 334 334 335 335 336 337 337 337 336 335 335 334 334 334 323 324 327 323 323 324 325 331 330 330 329 329 328 328 327 325 325 327
311 310 313 314 314 324 329 332 334 337 340 343 342 344 346 343 343 344 344 345 344 343 343 342 344 346 347 347 346 346 345 344 344 344 344 344 345 343 342 342 341 342 340 342 342 340 340 339 338 337 337 334 334 334 333 334 335 336 336 336 336 337 335 334 333 333 328 322 320 320 320 321 321 321 328 328 328 328 327 328 333 327 328 326 326
308 309 311 314 313 322 327 330 332 336 338 339 342 341 344 346 343 342 343 344 343 343 342 344 345 346 347 347 346 346 345 344 343 343 344 344 345 344 344 342 341 341 340 341 342 341 340 339 338 337 336 334 334 334 334 334 335 336 336 335 336 336 334 334 333 331 318 318 319 319 322 332 321 323 327 333 331 328 326 331 333 330 331 328 328
306 307 309 312 312 321 324 327 330 333 335 337 339 340 340 344 345 344 343 344 344 343 343 345 345 346 346 346 346 345 344 343 342 341 344 344 344 345 344 343 341 340 340 340 342 341 340 338 338 337 336 335 334 334 335 336 336 336 335 336 336 335 334 332 329 317 316 316 317 316 325 335 321 323 334 332 333 330 328 328 326 328 329 329 332
305 306 307 310 315 318 322 324 327 330 333 335 336 338 339 340 345 345 344 343 344 344 344 343 345 345 345 345 346 345 344 343 341 340 340 343 344 344 344 343 341 340 340 341 342 341 339 338 338 337 336 336 336 336 336 337 337 335 335 336 336 334 333 331 322 318 314 314 317 323 317 318 317 323 334 336 334 333 331 332 332 332 331 332 332
305 306 306 308 309 316 319 321 323 326 328 330 333 334 336 338 340 346 346 345 344 342 342 343 344 344 344 344 345 345 344 343 342 341 341 341 342 343 343 344 343 342 341 342 342 341 339 338 337 338 337 337 338 336 336 336 335 335 335 335 333 332 331 329 317 317 316 315 319 319 318 317 320 333 331 337 337 336 335 335 335 335 335 335 335
303 304 305 307 308 314 317 318 319 322 324 326 328 331 334 336 338 341 344 345 344 344 343 341 339 339 339 340 342 343 343 343 342 342 341 341 342 342 341 343 343 342 342 342 342 341 340 338 338 338 338 337 336 336 335 335 334 334 334 333 332 329 328 327 326 317 318 317 321 319 318 323 319 331 330 335 337 336 335 337 336 335 335 335 334
302 303 305 306 306 307 315 316 317 319 321 322 324 327 330 333 335 338 339 341 344 344 344 343 339 336 340 339 341 342 342 343 343 343 341 342 343 342 341 341 343 343 342 342 342 341 340 339 339 339 338 338 336 335 334 334 334 333 332 331 330 329 326 317 318 316 319 319 317 324 319 319 335 330 330 331 332 333 334 335 334 332 331 331 331
302 302 303 304 305 306 307 313 315 317 317 319 321 323 326 329 331 334 337 340 341 343 344 343 343 342 340 342 342 339 340 342 343 341 340 341 343 343 342 342 342 342 342 342 341 340 340 339 339 339 339 338 336 335 334 334 333 332 330 329 329 327 326 322 315 316 317 319 321 325 323 325 335 332 332 333 333 332 331 331 330 329 330 331 329
299 301 301 303 304 305 306 307 310 314 314 316 318 320 323 327 328 331 334 337 339 339 341 342 343 343 342 343 343 341 341 342 343 341 340 341 341 340 341 343 342 342 342 342 341 340 341 340 339 339 339 337 336 335 334 334 332 331 328 327 326 326 325 322 316 315 320 325 324 322 326 331 333 334 334 333 332 332 331 330 330 332 334 334 333
297 297 298 300 301 302 305 306 307 308 310 313 316 318 320 323 326 327 331 334 336 338 340 342 342 342 342 341 342 342 341 342 342 340 339 339 338 338 340 343 342 342 341 341 340 340 340 339 338 339 339 337 335 335 334 333 331 330 326 323 322 322 323 322 313 314 319 329 323 326 326 334 334 334 332 332 332 332 331 331 332 333 333 333 333
295 295 296 298 299 300 302 303 306 307 309 310 313 314 317 320 322 325 327 330 332 335 337 338 340 339 339 339 340 341 340 340 338 338 338 338 338 337 337 341 342 341 341 341 340 339 340 339 338 339 339 336 335 335 334 333 332 328 324 322 320 319 320 316 313 316 321 327 325 323 324 333 331 331 331 331 331 332 332 331 332 332 331 331 332
294 294 295 296 299 299 300 302 304 305 307 310 312 312 315 318 319 321 323 325 329 332 334 335 335 335 335 336 337 338 339 337 338 337 334 336 338 333 335 337 341 340 341 340 339 338 339 338 338 338 338 337 335 334 333 333 328 324 322 320 319 317 312 310 311 316 319 326 326 326 333 330 330 330 330 331 332 332 332 332 331 329 328 327 328
293 293 294 295 298 298 299 300 302 303 306 309 311 311 313 316 317 318 321 323 327 331 332 332 331 331 330 331 335 335 334 334 335 334 335 334 331 329 332 335 337 340 341 340 340 339 339 338 337 337 338 336 335 334 333 329 327 324 321 318 317 312 310 310 309 314 316 320 325 326 328 328 329 329 329 329 329 330 330 329 327 327 327 326 327
290 292 293 295 297 298 298 299 300 302 305 309 309 310 312 314 314 315 318 321 325 331 333 335 337 335 328 332 334 335 334 334 333 338 332 332 330 327 328 330 333 336 339 340 339 339 339 339 337 337 337 336 332 323 323 326 326 325 321 317 311 310 310 310 309 310 314 316 321 327 330 326 327 329 328 327 327 328 326 326 327 328 328 329 328
289 291 292 294 296 297 298 298 300 301 304 308 308 309 310 312 311 313 316 319 322 328 334 335 334 333 332 333 334 336 335 334 334 334 333 328 332 325 328 329 332 334 335 336 337 338 337 337 337 337 336 333 325 323 321 319 317 322 318 313 312 310 311 311 309 307 311 312 314 326 331 327 325 324 324 324 325 326 326 327 328 328 329 329 328
289 290 292 295 296 297 297 299 300 300 303 306 307 307 310 310 310 311 315 318 319 326 333 333 332 332 331 332 333 335 335 334 335 337 337 333 330 326 324 325 327 328 331 334 334 335 335 336 336 336 333 327 324 323 321 320 318 314 315 314 313 311 311 311 310 308 308 312 310 325 331 331 326 327 330 329 329 327 327 329 329 330 329 329 328
289 292 293 293 295 296 298 298 299 300 302 305 305 305 308 308 309 310 312 316 320 323 332 332 332 331 331 331 332 333 334 334 333 334 335 333 332 330 327 328 328 328 327 330 330 331 332 329 330 329 328 326 324 322 321 320 318 317 316 315 313 312 311 310 309 309 309 308 311 326 327 328 329 329 330 331 330 330 332 331 330 330 331 331 330
290 291 292 293 295 296 298 298 299 300 302 303 304 305 307 306 307 308 311 314 317 321 330 331 331 331 330 331 331 332 333 332 332 333 332 332 332 330 330 330 329 329 330 329 328 328 327 326 326 326 327 327 325 323 322 322 320 318 317 315 314 312 311 312 311 310 311 313 316 323 324 328 329 330 330 329 331 331 331 332 331 331 332 332 332
289 290 292 293 296 296 298 298 298 300 301 302 303 304 304 305 306 307 308 309 313 317 329 331 331 332 331 330 330 331 331 331 331 332 332 333 332 330 329 330 330 331 330 328 327 327 326 325 324 324 323 325 324 323 322 322 321 320 317 315 313 312 314 315 314 314 315 315 318 322 326 330 331 333 332 331 331 332 332 331 333 333 333 331 331
289 290 292 293 295 296 297 298 298 300 300 300 300 303 303 303 305 306 306 308 310 316 325 326 324 323 324 327 330 331 331 331 331 331 332 332 331 331 330 330 330 331 330 328 326 326 325 325 324 322 322 322 323 322 320 320 319 318 315 312 311 314 315 315 315 316 316 315 312 316 321 325 328 330 331 332 332 331 332 332 330 331 332 331 330
288 290 292 292 294 297 297 297 298 299 299 300 299 301 302 302 303 304 304 306 308 312 316 319 320 320 320 322 323 327 327 328 329 330 331 331 331 330 330 330 330 330 330 329 328 326 325 326 325 325 324 323 323 321 317 315 314 314 313 311 310 312 313 313 314 314 312 309 308 310 315 319 322 326 329 329 331 331 330 330 330 331 330 330 330
288 290 292 292 294 296 296 297 298 299 299 300 299 299 300 300 301 302 303 305 305 308 312 315 316 317 317 317 320 322 322 324 327 328 328 329 325 325 325 324 327 326 327 328 329 328 326 326 326 325 324 323 321 319 318 316 314 312 312 314 313 313 313 315 316 314 311 308 305 305 310 313 316 319 324 328 328 328 329 331 331 331 331 330 330
289 290 292 293 295 295 295 297 298 300 300 299 299 298 300 299 300 301 302 303 303 306 309 312 313 314 314 314 316 317 319 321 323 326 327 326 325 324 324 324 325 326 326 326 327 327 327 327 326 324 323 320 319 318 319 317 317 317 317 317 316 315 313 312 312 312 309 306 303 303 303 308 311 314 318 323 327 328 328 328 329 329 330 329 328
288 289 291 293 293 294 295 297 298 299 300 298 299 298 298 299 300 300 300 301 302 304 306 308 309 311 313 313 313 314 315 317 317 319 322 322 321 320 320 320 320 322 324 325 324 324 323 323 324 323 321 320 318 319 319 319 318 318 317 314 311 308 306 304 302 301 301 300 300 300 300 301 306 309 312 315 320 322 324 325 326 326 326 326 326
289 290 291 292 292 294 296 296 298 298 300 297 299 299 299 298 299 299 299 300 301 302 303 304 306 308 309 310 311 312 313 313 314 314 315 316 316 315 315 315 317 318 321 321 320 320 319 320 319 320 320 319 318 317 317 317 317 317 313 309 305 302 300 298 298 298 298 298 299 299 299 300 299 303 307 309 313 317 319 320 321 321 322 322 323
289 290 290 291 294 295 297 297 298 297 299 298 298 299 299 299 299 299 299 299 300 300 301 302 304 305 306 306 307 308 310 311 312 312 312 313 313 312 313 313 314 315 316 315 315 315 315 316 316 315 314 314 313 314 315 314 314 311 308 304 301 299 298 297 297 297 297 297 297 297 297 297 297 298 298 304 307 310 314 316 316 317 317 318 320
289 289 289 290 292 294 296 296 296 296 298 298 297 298 298 298 298 298 298 297 298 298 299 300 301 303 303 303 304 305 306 307 308 309 309 309 310 310 310 311 312 312 312 312 311 310 310 310 313 312 311 310 310 311 313 312 309 306 303 300 299 299 298 297 297 297 297 297 297 297 297 296 296 297 297 296 302 305 307 310 311 312 313 313 315
287 289 289 290 293 294 295 295 294 295 297 298 297 299 298 298 298 298 297 297 297 297 297 298 299 301 301 301 302 302 303 304 305 306 306 305 306 306 307 310 310 309 308 308 309 307 306 306 306 311 309 308 309 310 309 304 302 300 300 299 299 298 297 296 296 297 297 296 295 295 295 295 295 296 296 295 295 298 302 304 306 307 308 308 310
286 287 289 289 292 293 293 294 294 294 296 297 297 297 298 297 297 297 297 296 296 296 297 297 298 298 299 300 300 300 300 300 302 302 302 302 302 303 304 306 307 307 306 305 305 306 305 304 303 304 308 308 308 305 303 301 299 299 300 299 299 299 298 296 295 295 296 294 293 293 293 293 294 296 294 294 294 293 297 299 299 302 303 303 305
286 287 288 288 291 291 293 294 295 296 295 297 296 296 297 297 296 296 296 295 296 296 296 296 296 297 297 298 299 299 299 299 299 300 300 300 300 300 300 302 304 304 303 302 301 303 303 303 301 301 304 307 307 303 301 301 300 299 299 299 299 299 299 299 295 295 293 293 293 292 291 292 292 292 293 293 293 292 292 293 295 295 297 299 301
286 286 287 288 289 290 294 294 292 294 296 296 297 297 297 297 296 295 294 294 295 295 295 295 295 296 296 296 297 297 298 297 298 298 298 298 298 298 298 299 300 300 300 299 299 299 300 301 300 300 301 303 304 303 301 299 298 297 297 297 297 296 294 294 292 291 291 291 291 292 291 290 290 291 291 292 292 291 290 289 288 287 288 295 297
285 287 287 286 288 290 291 293 292 291 295 297 296 295 295 294 293 294 293 293 294 294 294 294 295 294 295 296 296 296 296 297 296 296 297 296 296 296 297 297 298 298 297 296 297 297 297 297 299 300 299 299 300 301 300 298 297 294 293 291 291 291 290 290 290 290 290 290 290 290 289 289 289 289 290 290 291 290 289 288 288 287 287 289 294
284 286 286 286 287 288 290 290 291 291 291 294 293 292 291 292 292 292 291 292 293 293 293 293 294 294 294 295 295 295 295 295 296 296 295 295 295 295 295 295 296 296 296 295 296 296 297 297 296 297 298 296 294 294 294 297 292 291 291 290 289 290 290 289 288 289 289 289 289 288 289 288 288 288 289 289 289 289 288 288 287 286 286 285 286
284 285 285 286 286 288 289 289 291 291 290 290 293 292 291 292 292 291 293 292 291 291 291 292 292 293 293 294 294 294 294 294 296 295 295 294 294 294 294 294 295 295 295 294 294 295 294 295 295 292 292 291 289 289 290 298 294 290 289 289 290 289 289 288 287 287 288 288 288 288 288 288 288 288 288 288 289 289 288 287 286 286 285 285 285
282 283 284 285 286 287 287 288 290 290 292 293 293 291 293 292 292 292 292 292 293 293 292 293 293 292 292 292 293 293 293 293 294 294 293 294 294 294 293 294 294 295 294 293 293 293 294 294 294 293 290 290 290 290 290 290 298 297 291 289 288 289 290 289 287 286 287 287 288 287 287 287 287 287 288 287 287 288 288 287 286 285 285 284 284
282 282 283 284 285 287 285 287 288 289 289 292 293 292 292 292 292 292 292 292 291 293 292 292 292 291 290 291 291 292 292 292 293 293 293 293 293 293 293 293 293 292 292 291 291 291 292 294 295 295 294 291 288 288 290 291 290 295 294 298 295 290 285 286 286 287 287 286 286 286 286 286 286 287 287 286 286 287 287 287 286 285 284 284 284
281 282 283 284 285 284 285 285 287 289 289 290 290 290 290 288 290 290 289 288 289 289 288 286 287 289 290 289 288 289 290 291 291 291 292 290 291 291 291 290 290 290 290 289 289 289 291 292 293 293 293 291 288 289 289 290 290 290 298 298 297 293 288 288 288 287 287 285 285 285 286 285 285 285 286 286 286 286 287 286 285 285 284 284 284
281 282 282 283 282 283 284 284 285 287 288 289 289 290 287 286 285 285 285 285 283 283 283 283 284 284 285 286 287 288 288 288 289 289 290 290 289 289 289 288 289 289 289 288 288 289 288 288 289 289 289 289 288 286 285 288 288 290 289 290 294 296 288 291 294 288 286 286 285 285 285 285 285 285 285 285 285 285 286 285 285 284 284 283 283
282 281 282 282 282 283 283 283 284 286 287 288 288 290 287 286 285 284 284 283 283 283 284 285 285 285 285 285 285 286 286 287 287 288 288 288 287 287 287 287 287 288 289 287 287 287 287 288 288 287 288 289 288 285 285 285 287 287 286 287 288 289 293 293 290 290 288 286 284 283 284 285 284 284 284 284 285 284 285 285 284 284 283 283 283
280 281 281 282 282 281 282 283 283 286 285 286 287 288 286 285 285 285 286 282 282 282 283 284 284 286 284 284 284 285 285 286 286 286 286 287 287 286 286 286 286 287 287 285 285 286 286 287 287 286 287 287 286 285 284 286 283 283 285 285 285 285 285 285 287 289 287 283 282 284 284 284 284 283 283 283 284 284 284 284 284 283 282 282 282
280 280 281 281 281 280 282 282 282 282 283 284 287 285 288 285 284 284 283 285 284 283 283 283 283 283 282 283 283 284 284 285 285 285 285 286 287 286 285 285 285 285 286 285 284 284 284 284 284 284 284 284 285 285 283 283 283 282 283 282 283 283 283 283 284 284 283 282 281 279 279 283 285 283 283 283 284 284 284 283 284 283 282 281 281
280 281 282 280 280 279 281 281 281 281 283 282 282 283 283 285 282 282 282 281 283 281 280 280 280 281 281 281 281 282 282 283 284 284 285 285 285 285 285 285 285 286 286 284 283 283 283 283 283 283 283 282 283 283 282 282 282 283 283 284 282 282 281 280 281 282 281 281 279 278 278 279 279 282 283 282 282 282 283 282 281 281 280 280 280
279 280 280 279 279 279 279 279 280 280 281 281 281 281 281 282 281 281 280 280 280 281 281 280 279 280 280 280 280 280 281 282 282 283 284 284 285 286 284 284 285 286 284 283 283 283 283 283 283 283 282 282 282 282 282 282 282 281 281 280 280 280 280 279 278 279 280 279 278 278 278 279 278 279 281 282 282 281 281 280 280 281 280 280 280
Wind_Speed
21 18 18 22 23 23 22 22 12 5 8 3 6 5 8 6 7 6 5 4 4 4 6 6 3 4 2 6 3 1 10 13 12 11 11 11 8 8 8 10 11 11 12 12 12 11 11 10 11 11 11 11 11 11 10 11 12 12 13 13 11 11 12 12 11 11 8 7 10 13 12 11 11 12 13 12 11 11 9 10 7 3 2 6 10
20 19 14 16 24 22 21 21 13 9 5 5 10 6 7 4 7 7 6 4 3 4 7 10 6 6 2 3 4 2 6 1 12 12 12 11 8 9 8 7 11 12 12 12 11 11 10 10 10 10 10 11 11 11 11 12 12 12 11 11 12 12 13 11 10 8 10 11 11 11 11 9 11 12 11 12 12 11 6 9 7 3 2 12 13
13 12 14 17 23 22 19 19 15 8 5 8 10 7 5 9 8 7 6 4 3 3 6 9 9 7 8 5 5 5 2 1 1 8 9 8 3 6 8 9 8 10 12 11 10 11 10 10 9 9 9 9 10 11 12 12 11 11 12 11 10 12 12 9 8 8 9 11 12 12 9 10 12 11 12 12 13 9 5 9 7 5 6 11 10
14 12 13 17 22 20 21 21 15 7 9 7 9 7 7 2 5 6 3 3 3 4 7 7 9 8 9 7 9 6 6 8 5 9 7 8 4 2 6 8 7 9 11 12 11 10 10 9 9 9 9 9 9 10 10 10 10 10 10 9 10 10 10 8 6 6 8 10 11 8 4 4 7 11 9 13 11 11 6 10 11 8 10 8 11
15 13 12 12 15 19 25 25 18 7 8 10 9 7 5 8 5 6 5 5 3 4 5 10 9 9 8 10 11 11 7 6 8 9 12 11 7 7 3 6 7 6 11 11 11 10 10 9 9 9 9 9 9 10 10 10 10 9 9 9 9 8 8 7 4 3 7 8 8 6 3 3 2 9 10 11 11 10 8 9 10 9 10 10 10
16 14 12 13 12 15 25 26 19 17 10 11 12 9 2 5 6 7 6 5 4 2 2 4 10 11 10 11 11 9 9 8 7 7 9 10 10 9 2 2 5 3 9 10 10 10 9 9 9 9 9 9 9 9 9 9 8 8 9 9 9 8 7 5 4 2 7 7 7 3 3 4 3 3 11 9 9 7 9 9 8 9 8 8 11
13 12 13 12 11 14 24 24 23 18 16 12 6 8 5 5 4 4 7 7 5 5 4 6 7 8 9 9 8 8 9 9 8 7 8 9 8 10 11 5 6 6 10 10 10 10 9 9 8 8 8 9 8 9 9 9 9 9 9 9 9 8 6 6 7 8 8 5 3 3 3 3 3 2 10 9 7 7 6 7 7 7 6 8 10
11 10 12 12 9 15 23 24 24 24 19 16 12 7 6 6 8 10 10 9 7 6 6 6 9 8 7 8 8 8 8 8 8 8 6 8 8 9 7 8 7 5 7 10 10 10 10 9 8 7 7 8 8 8 9 9 9 9 9 9 8 8 7 7 9 8 8 4 3 2 3 2 1 1 7 6 6 5 5 5 5 5 5 5 5
13 12 11 12 12 21 22 21 23 23 24 20 14 13 8 7 8 10 12 10 8 8 7 7 9 8 9 9 9 8 7 6 7 7 7 7 8 9 9 7 4 3 7 9 10 11 10 9 8 7 7 7 7 8 8 8 8 8 8 9 8 8 8 7 8 8 5 3 2 1 2 2 1 1 6 6 6 5 6 5 4 4 5 4 3
14 13 11 10 12 21 21 22 22 22 22 23 19 15 13 11 12 13 11 10 9 6 6 10 11 10 9 9 9 9 9 7 7 8 8 7 7 8 10 9 7 4 7 8 10 10 10 9 8 7 6 6 6 7 7 7 7 8 8 9 9 8 8 7 7 6 3 3 1 1 1 4 1 0 3 8 7 6 5 4 4 4 3 4 4
15 13 12 11 14 21 23 22 21 21 20 21 22 22 17 12 11 12 10 11 10 11 14 13 10 8 9 9 9 9 8 8 8 8 9 8 8 8 10 10 7 5 3 8 9 9 10 9 8 7 6 6 5 6 6 7 7 7 8 8 9 8 8 7 6 3 3 2 1 2 4 2 0 1 2 4 6 6 4 3 4 5 6 5 4
13 13 12 11 17 21 23 22 22 21 22 22 21 21 22 19 11 10 11 12 11 11 12 11 8 7 9 9 8 8 8 8 8 8 8 9 8 8 9 10 9 9 9 8 9 9 10 9 8 7 6 6 5 5 6 6 7 7 8 8 9 8 7 7 4 4 2 1 1 1 2 2 2 4 4 4 5 4 3 3 3 7 3 5 5
11 12 12 11 12 20 21 22 22 21 21 21 20 19 20 22 19 11 11 12 12 12 10 9 9 9 9 9 8 8 9 9 9 9 8 9 9 9 9 10 10 10 11 10 10 10 10 9 8 7 7 6 6 5 5 6 7 7 8 8 9 8 6 6 3 3 2 1 1 0 1 2 3 3 5 6 2 2 1 3 3 5 7 4 4
11 12 11 10 10 18 21 21 22 22 21 21 20 20 19 20 21 16 13 11 11 11 11 11 8 6 11 11 8 8 9 9 9 9 8 9 9 9 10 11 11 11 11 10 10 10 10 10 9 8 7 7 6 5 6 6 7 9 9 8 8 7 6 5 4 3 2 2 1 0 1 3 2 2 3 5 5 5 5 7 6 5 4 3 2
10 12 12 10 11 12 22 19 21 22 22 21 20 19 19 19 19 20 14 13 11 11 11 11 11 11 13 9 6 7 8 9 8 7 6 7 8 9 10 10 10 11 11 10 10 10 10 10 10 9 8 8 6 6 5 6 8 9 8 7 7 7 6 3 2 2 2 1 1 0 2 2 4 3 2 4 6 6 6 5 4 3 3 3 5
9 10 11 10 10 11 11 16 19 20 21 21 20 19 19 18 18 17 18 14 13 12 11 10 9 10 9 6 5 6 9 8 6 5 4 5 8 9 10 11 11 11 11 11 10 10 10 10 10 9 8 8 7 6 5 6 9 9 8 7 7 7 6 4 2 2 3 1 0 0 2 2 4 2 4 6 6 6 6 6 3 3 7 8 6
8 10 10 11 10 9 11 11 15 20 17 20 20 18 19 19 18 18 17 15 14 14 11 10 9 8 6 6 6 9 10 8 6 6 5 4 7 8 8 11 12 11 11 11 10 11 11 11 9 8 9 8 6 6 5 6 8 8 8 7 7 6 5 4 2 2 3 0 1 1 2 3 2 3 3 4 5 6 6 6 7 8 9 10 10
7 8 10 11 11 9 9 10 11 12 12 15 18 19 19 20 19 18 18 16 16 14 11 9 8 8 6 6 6 8 7 6 6 5 6 5 6 7 8 9 12 11 11 10 10 11 12 11 9 9 10 9 7 6 6 7 9 8 7 7 6 5 4 4 3 3 1 2 3 0 1 3 5 4 6 6 6 6 6 6 7 9 8 7 8
8 8 8 10 12 11 11 9 10 10 13 12 10 14 20 19 20 17 17 17 18 16 9 6 7 4 4 6 6 8 7 7 4 5 5 6 6 7 8 8 11 11 12 12 12 12 12 10 9 9 10 10 8 7 6 7 8 8 7 6 6 5 4 3 3 2 1 4 1 2 3 2 3 4 5 6 7 8 7 6 6 6 8 9 9
7 9 9 10 10 11 11 11 11 11 11 11 10 12 15 19 20 17 16 15 16 16 11 8 5 6 7 7 8 6 6 6 7 6 7 6 5 4 6 8 10 12 13 13 12 12 11 9 9 9 10 10 9 8 7 7 8 7 6 4 5 4 3 3 3 3 2 3 2 3 4 3 4 4 5 6 7 7 6 6 7 9 8 9 9
8 8 9 11 11 12 12 11 12 14 12 11 9 10 11 17 15 17 17 14 15 14 12 8 8 6 6 6 6 5 4 4 4 4 6 3 5 7 8 9 9 10 12 14 13 12 11 11 10 10 11 10 9 9 8 7 6 5 5 5 6 3 2 3 3 4 3 2 4 1 3 5 6 6 8 9 8 8 7 7 7 7 8 7 7
12 11 9 11 11 11 12 11 10 14 13 10 9 9 9 12 11 11 10 11 11 11 9 8 7 4 5 5 3 3 3 3 4 6 4 4 4 7 7 8 7 10 11 12 11 10 12 11 11 11 11 10 10 5 4 5 5 5 6 6 3 2 2 2 2 4 3 4 3 4 5 8 10 10 10 9 8 7 6 6 5 5 6 7 6
13 13 11 12 10 10 12 13 12 12 13 12 9 9 10 9 10 11 10 12 10 10 8 7 4 5 4 4 4 3 4 4 4 4 5 6 5 7 7 9 10 9 5 9 9 9 8 10 11 11 11 11 6 4 2 2 1 4 4 2 2 2 1 1 2 2 3 2 2 4 5 4 7 7 4 2 3 3 4 4 4 4 4 4 4
10 9 11 9 10 11 12 11 13 13 12 10 10 9 8 9 9 9 9 8 9 8 7 6 4 4 5 3 3 3 3 3 5 9 9 5 5 6 8 6 4 6 8 9 10 10 10 9 9 10 9 4 4 4 3 2 1 1 1 1 1 1 1 1 1 1 2 3 3 7 8 9 6 7 8 7 5 3 3 5 6 5 4 3 3
7 8 9 11 11 11 11 12 12 11 13 11 12 10 10 8 9 9 9 9 8 8 6 6 5 4 4 3 4 4 3 3 3 4 5 4 4 4 4 4 5 6 9 4 3 5 4 3 5 5 4 5 5 4 2 2 0 0 0 0 1 1 2 2 2 2 1 3 3 9 10 10 11 10 9 9 6 6 7 5 5 4 4 6 7
5 7 11 11 12 11 11 11 11 11 11 11 10 11 12 9 9 10 10 8 9 8 7 5 3 4 3 3 4 4 4 4 3 5 4 4 5 4 4 4 4 4 4 3 5 6 5 5 5 4 4 5 4 3 3 2 1 0 1 0 1 1 2 3 3 5 6 5 5 10 8 7 7 9 7 4 6 6 6 6 6 8 9 10 11
11 9 8 8 9 11 11 12 11 11 12 12 11 9 9 9 8 9 11 10 9 9 8 5 3 2 3 3 3 4 4 5 6 6 7 4 5 5 5 4 5 5 4 5 5 4 4 5 5 4 4 4 4 4 3 2 1 1 1 1 1 1 2 3 5 5 5 5 7 15 12 12 9 9 9 7 6 6 6 7 9 8 11 10 11
8 9 9 9 9 11 11 12 11 12 10 10 11 10 9 9 8 10 9 11 10 9 6 3 4 4 4 3 1 4 6 6 7 6 6 4 5 5 5 5 5 4 4 2 4 4 4 4 5 4 4 4 5 4 4 3 2 1 1 2 2 3 3 4 4 4 5 6 8 13 16 18 18 15 14 14 11 9 9 10 11 13 13 13 15
10 11 9 9 10 10 11 11 11 11 10 9 10 10 9 9 10 7 8 11 9 9 8 4 2 3 4 3 4 2 2 2 5 6 5 5 5 5 5 6 5 5 6 4 3 5 4 4 4 4 4 4 4 4 3 3 3 3 2 2 3 3 3 5 6 7 6 7 8 12 16 18 19 18 17 15 17 16 14 15 15 15 16 18 18
9 9 9 9 9 9 10 11 11 11 11 12 9 10 9 9 10 9 8 9 9 10 9 5 3 3 5 4 4 4 4 3 4 5 5 6 2 1 2 1 3 2 4 5 5 4 4 4 4 4 4 4 3 3 5 4 4 3 4 5 6 6 6 6 7 7 7 7 7 10 16 17 19 20 20 20 21 20 21 20 20 21 21 21 21
10 10 9 8 8 9 10 9 9 12 9 11 12 10 10 10 9 9 7 8 10 10 7 6 5 2 5 6 4 5 4 4 5 3 4 2 4 3 2 3 2 1 2 4 2 3 4 5 5 4 4 4 3 3 5 5 5 5 5 7 6 6 6 6 7 6 7 7 7 7 10 17 19 20 21 21 22 22 22 22 22 22 23 23 22
11 12 10 9 10 10 9 9 9 10 10 9 12 10 10 9 10 8 8 9 9 8 7 6 6 4 5 5 5 5 5 5 6 7 3 5 4 5 5 5 4 3 3 4 4 4 3 1 3 4 4 5 5 4 4 5 5 5 7 8 7 7 7 6 7 7 8 7 8 7 7 9 17 20 21 22 22 21 21 22 22 23 22 22 22
7 8 10 10 11 10 9 9 9 11 9 11 10 9 9 9 8 8 8 7 7 8 7 7 7 6 6 6 5 6 7 7 6 6 7 4 3 5 6 5 4 4 5 6 6 5 4 3 4 5 5 6 6 6 6 5 6 6 8 8 7 8 7 8 8 8 8 8 8 7 6 7 9 15 21 22 22 22 23 23 23 23 23 22 22
8 7 9 10 9 8 8 8 10 12 11 10 11 8 9 8 8 8 8 8 7 8 8 7 7 8 6 8 7 7 6 6 5 5 6 5 4 6 5 5 5 6 6 5 5 4 5 5 5 7 5 6 7 5 6 7 7 6 7 7 8 7 7 9 9 8 8 8 7 8 8 8 7 6 9 19 23 22 23 23 23 24 24 24 23
7 7 9 9 10 10 10 7 11 11 11 11 12 10 9 8 7 8 8 8 8 9 8 8 8 6 7 8 8 7 8 7 6 5 5 7 7 7 7 5 5 6 7 6 6 5 6 6 4 7 7 7 7 6 6 8 8 8 7 6 8 7 8 9 8 9 9 8 8 8 8 8 7 7 7 9 14 23 23 24 24 24 25 25 24
7 8 8 9 9 10 10 9 11 13 11 12 10 9 9 7 6 8 7 9 8 9 9 8 7 6 7 8 8 7 7 7 7 6 6 9 7 7 8 6 7 6 7 7 7 7 6 6 6 4 8 7 8 8 8 10 9 10 8 7 7 8 8 8 8 8 7 8 9 9 9 8 7 8 9 8 8 14 23 23 24 25 25 25 24
6 8 9 10 10 10 10 11 12 11 12 14 10 9 7 6 7 7 8 9 9 9 8 8 8 8 9 8 8 9 10 8 9 7 7 8 8 7 6 7 7 7 8 7 8 6 6 7 7 7 5 7 10 12 9 9 10 10 10 10 9 9 9 8 8 8 7 10 9 8 9 9 9 9 8 8 8 8 16 22 22 24 25 24 24
5 6 7 8 9 11 11 12 12 13 12 10 9 8 7 6 6 6 8 10 10 8 7 9 9 9 9 9 7 7 9 10 9 9 6 8 8 8 8 8 7 6 7 8 7 6 7 7 8 7 5 7 9 10 10 9 9 9 9 9 8 7 6 6 7 7 8 9 8 8 8 8 9 9 8 8 9 9 8 14 20 20 24 23 23
6 6 7 7 6 8 8 8 11 11 9 10 7 6 7 6 5 6 10 11 10 8 8 10 9 8 10 8 7 9 10 10 11 11 7 8 9 9 9 9 7 7 8 8 8 8 8 8 8 8 9 8 8 9 10 10 10 10 10 9 7 8 8 8 7 7 8 9 10 9 7 9 9 8 9 8 8 9 10 9 9 9 12 23 21
6 7 8 8 9 8 8 8 7 8 9 5 5 6 6 6 7 7 12 11 8 7 9 10 9 9 10 8 9 9 10 10 10 9 6 8 10 9 9 8 7 8 9 9 7 7 7 7 7 8 11 10 9 7 7 10 9 11 11 10 10 10 10 8 8 8 8 9 9 7 8 7 8 8 9 8 8 9 9 8 9 9 8 12 20
5 7 8 9 9 8 8 10 8 7 8 8 6 6 7 7 8 11 10 8 7 8 10 9 5 6 8 9 9 9 10 9 8 8 10 11 10 9 10 9 8 9 8 8 6 7 6 6 6 5 8 10 7 6 4 2 12 11 9 10 11 11 11 10 10 8 9 8 7 8 8 8 8 8 8 7 8 9 8 9 9 8 8 8 11
9 7 9 9 8 8 7 7 7 7 8 8 7 5 6 6 5 6 4 5 6 7 6 4 6 10 9 8 9 10 11 10 8 10 11 11 10 9 10 8 7 7 7 7 8 7 7 6 5 9 7 8 6 6 5 0 5 8 9 8 7 9 9 10 10 10 9 8 8 8 8 8 8 7 7 7 8 9 9 8 8 8 9 9 9
5 6 5 6 9 9 8 8 7 7 5 6 6 6 5 4 5 4 3 1 3 4 4 5 7 8 8 9 9 10 10 9 10 10 10 9 8 8 8 7 7 5 6 8 8 9 7 8 7 7 7 6 6 7 8 6 4 6 8 9 5 4 4 6 8 10 9 8 8 9 8 9 9 8 7 7 7 7 7 8 8 9 9 9 8
5 6 6 5 4 6 7 8 7 7 7 8 7 6 6 6 4 1 2 3 3 2 4 5 6 8 9 8 9 9 9 9 8 8 7 8 7 8 8 6 6 6 7 8 8 9 8 8 7 6 3 6 6 8 8 7 5 3 4 1 4 4 5 4 4 6 8 10 9 10 8 8 8 8 7 8 7 7 7 7 8 8 8 9 8
5 5 6 6 4 4 5 6 6 7 7 8 8 8 7 7 5 4 4 4 4 4 3 7 8 7 8 11 10 9 9 8 8 8 8 9 9 8 8 7 7 7 6 7 8 8 8 7 7 7 7 7 8 5 9 9 11 6 1 4 3 2 1 4 4 4 4 6 9 8 8 9 8 7 7 7 6 6 6 7 7 7 8 8 8
5 4 4 4 5 6 5 6 6 6 7 7 8 6 6 6 6 6 6 5 7 8 10 8 8 8 8 6 8 9 9 9 7 9 9 7 9 9 9 6 5 5 5 5 5 7 8 9 7 6 9 8 9 6 6 7 8 9 9 5 2 3 8 4 2 2 3 5 4 6 7 8 7 6 6 6 6 6 5 6 6 7 8 8 8
4 4 4 4 4 5 5 4 5 5 5 6 6 5 6 6 7 6 5 6 4 4 4 5 4 4 4 7 7 8 9 9 9 9 9 8 8 8 8 7 7 5 5 7 8 7 6 7 6 7 6 5 5 9 6 4 6 9 8 7 7 7 4 5 3 4 3 1 2 4 5 5 6 6 6 6 5 5 5 5 6 6 7 7 8
4 3 4 4 5 5 5 5 4 4 4 5 5 5 5 5 5 5 5 5 5 4 5 5 4 4 7 7 6 7 8 8 8 9 9 8 8 8 6 6 8 8 6 7 8 7 7 6 7 6 6 5 5 8 6 1 6 3 3 5 7 6 7 7 5 4 4 5 2 1 4 4 3 5 5 5 5 4 4 5 5 5 5 6 7
4 3 3 4 4 3 3 4 5 4 5 5 4 6 4 4 3 3 4 3 3 3 3 4 5 6 9 8 8 8 8 9 9 9 9 8 7 7 8 9 9 8 7 8 8 7 8 7 7 8 7 7 6 5 7 5 6 5 5 6 7 6 6 7 6 5 3 4 3 4 4 2 0 4 5 4 3 3 3 3 3 4 5 5 6
4 3 3 2 3 3 4 4 4 5 4 5 5 5 5 4 4 3 3 3 3 4 4 5 5 5 8 7 7 8 7 8 8 9 9 8 8 7 7 8 7 7 6 7 7 8 8 8 7 7 6 8 6 6 7 5 5 5 4 2 2 2 4 5 7 6 8 7 5 2 2 3 5 3 3 5 4 4 3 3 4 3 3 4 5
4 2 3 3 2 2 3 3 3 3 3 4 4 4 3 4 3 3 3 2 2 2 4 5 5 5 7 6 6 5 5 6 6 7 8 7 8 7 7 7 7 7 7 8 8 7 7 7 7 7 8 8 7 8 8 7 6 7 7 6 6 5 4 4 4 5 5 4 4 3 1 2 1 4 5 6 4 3 2 2 3 2 2 3 4
Wind_Direction
333 331 323 320 319 314 312 314 287 311 258 221 253 197 171 184 177 170 170 179 174 162 147 113 162 86 164 119 135 200 151 142 138 138 137 121 143 127 128 126 118 109 105 101 100 100 101 101 99 102 104 101 99 102 98 95 98 95 83 76 86 92 91 84 81 72 80 101 93 93 95 89 86 87 90 91 84 80 77 89 88 74 30 49 90
315 314 314 319 318 315 311 313 288 296 342 356 281 219 181 158 220 176 172 186 191 164 146 135 150 119 107 107 93 139 358 251 139 140 134 137 153 147 136 128 122 113 106 104 105 105 105 104 103 104 106 107 108 107 101 97 95 96 99 103 96 89 85 76 62 54 52 48 96 95 85 95 88 80 80 87 84 82 97 91 98 87 74 74 74
300 307 323 321 320 319 315 318 300 298 307 197 239 244 203 181 230 188 182 186 185 173 148 139 139 153 142 164 95 42 102 285 152 100 121 135 117 150 131 103 108 109 105 104 103 104 103 102 103 103 104 108 110 110 108 105 102 101 105 100 93 82 81 69 58 57 54 57 59 49 32 78 89 88 88 85 88 80 53 101 111 115 94 80 70
320 333 334 325 330 325 334 319 306 298 298 265 261 225 206 180 211 263 193 217 192 186 158 158 152 158 161 142 130 187 169 138 235 127 121 116 170 79 134 114 135 118 110 104 103 103 101 99 99 100 99 104 110 108 103 103 105 103 102 105 88 82 77 60 45 54 57 61 53 38 31 15 66 72 74 85 82 85 64 74 85 89 80 77 70
335 336 335 333 337 337 344 335 321 250 231 276 251 247 213 173 182 222 201 224 250 214 196 164 169 175 167 157 167 186 167 168 164 156 156 147 143 159 158 158 113 116 115 113 107 104 101 100 99 100 101 103 110 110 109 110 108 105 101 89 81 71 66 72 56 62 78 71 58 43 31 32 17 97 87 80 85 90 80 69 56 56 57 62 72
334 335 337 338 335 335 339 345 335 324 289 216 227 251 145 191 193 198 210 208 220 198 213 229 174 176 171 170 172 162 149 159 155 162 146 127 147 153 166 137 143 124 122 118 114 107 104 104 101 100 101 102 106 110 111 108 102 91 84 78 70 61 57 82 131 121 87 78 53 53 46 50 58 88 88 90 88 85 87 83 80 67 59 64 52
332 336 333 341 329 333 342 344 353 333 320 294 232 219 199 197 200 202 220 217 196 195 200 202 213 175 166 156 157 151 149 150 150 150 138 136 143 145 164 200 160 164 138 129 120 115 110 107 105 102 101 103 104 104 100 90 86 84 80 72 64 55 62 89 115 112 97 76 82 65 58 63 53 338 97 100 94 80 76 79 78 69 70 70 57
328 337 334 337 329 335 348 349 352 355 329 316 296 229 210 212 200 220 214 207 191 184 224 208 216 187 166 160 161 158 155 153 143 128 126 138 142 139 159 179 204 157 145 127 127 124 118 115 113 111 106 105 103 98 93 90 84 81 76 70 64 60 69 88 105 108 98 91 95 88 90 105 92 19 88 82 84 99 93 91 92 76 73 74 75
334 340 337 339 332 331 352 350 353 348 355 334 303 277 213 217 229 220 214 197 186 198 198 211 224 186 180 173 166 161 155 146 136 135 135 142 150 151 162 176 167 185 164 134 132 129 125 121 118 117 113 107 104 99 96 92 86 82 79 74 68 65 70 81 89 92 83 85 77 101 118 79 54 47 105 115 96 85 102 100 92 111 97 118 115
339 338 337 340 330 335 348 352 352 353 346 350 341 310 252 209 208 230 213 199 183 175 233 227 217 193 186 181 175 164 160 158 154 150 150 155 154 159 155 171 170 202 163 148 139 132 130 127 122 119 118 113 101 97 92 90 89 85 80 78 73 69 73 77 84 83 94 98 101 115 150 124 107 253 98 88 101 111 122 120 120 121 182 155 180
342 338 335 341 338 343 348 351 350 351 349 344 346 348 324 248 228 220 217 209 202 184 207 221 209 198 198 190 180 168 168 171 170 165 163 166 168 164 162 165 165 172 143 160 147 138 132 130 127 121 118 114 101 89 89 86 81 79 77 79 82 73 74 82 81 71 73 69 41 9 341 15 27 221 329 118 110 119 134 154 176 186 181 179 74
343 338 339 338 342 344 349 350 352 349 352 345 346 344 341 326 250 229 218 215 212 203 213 213 207 206 210 201 182 174 174 185 183 180 179 174 174 173 169 162 166 164 181 167 150 141 133 130 128 130 121 115 102 87 80 75 69 69 68 64 73 74 69 80 82 80 73 72 66 12 348 332 311 276 67 53 124 136 170 143 230 219 209 30 39
334 341 340 343 339 345 347 352 350 349 349 342 342 343 341 337 319 242 228 222 218 213 214 217 220 219 222 205 195 183 186 193 195 188 195 190 180 177 177 174 176 184 174 162 155 146 136 137 136 138 139 130 114 95 83 71 69 66 63 54 52 64 65 67 82 92 85 98 130 27 334 300 292 295 40 93 74 88 162 125 68 72 46 41 48
336 340 340 340 343 343 350 353 351 347 345 342 338 347 340 335 338 307 245 231 226 221 215 222 234 260 263 245 204 197 201 201 201 198 200 200 190 187 186 185 180 182 174 168 161 151 148 147 150 154 154 144 125 107 91 86 74 66 62 58 53 54 55 51 60 83 101 124 118 227 331 293 255 17 34 71 115 109 95 65 56 58 54 61 47
336 338 339 342 345 345 348 353 348 348 344 340 340 341 342 334 332 336 302 241 229 222 223 215 202 227 235 235 217 206 208 207 210 207 202 204 203 199 193 191 188 182 180 173 166 159 157 153 162 162 159 143 129 113 99 89 81 74 64 56 52 47 51 57 58 70 86 121 175 27 272 292 300 98 45 21 19 30 48 82 84 60 68 27 26
336 333 341 346 342 348 346 346 346 345 346 338 340 343 338 334 331 328 332 305 245 224 224 222 221 217 215 242 242 237 222 208 214 217 219 226 208 208 194 189 194 192 185 179 170 164 159 163 168 165 158 142 135 120 107 89 83 80 70 56 46 44 46 53 30 71 76 96 122 2 349 340 308 55 33 17 16 8 12 5 348 349 358 344 334
336 341 344 346 347 344 347 344 337 344 342 340 339 344 338 331 332 328 327 327 293 250 232 224 221 220 230 231 243 209 218 213 206 203 210 227 219 210 205 191 196 195 189 176 175 168 163 172 170 160 154 144 136 121 109 90 86 84 73 59 49 43 43 62 66 53 45 19 82 43 323 347 26 45 57 47 24 5 1 352 336 7 3 357 354
339 344 349 347 346 347 343 341 338 338 339 338 338 343 338 332 331 330 326 325 322 280 239 230 221 221 227 235 225 235 237 230 205 204 200 204 231 214 211 200 199 192 185 171 183 178 170 177 174 159 154 146 137 125 108 92 91 85 75 64 54 45 35 55 63 34 344 58 60 27 326 22 62 51 39 20 1 357 357 344 348 354 2 355 353
341 349 347 350 350 343 345 341 341 343 342 337 335 335 334 331 328 329 327 329 327 305 270 248 220 212 218 222 238 239 226 227 216 242 226 206 218 222 207 203 205 185 178 180 187 185 174 178 174 165 157 148 136 126 109 94 90 87 80 68 55 43 17 48 60 63 350 63 351 17 2 322 46 12 4 353 2 1 353 342 356 359 1 357 352
343 349 352 351 346 348 344 343 344 345 342 332 336 332 327 329 325 328 324 327 317 299 262 232 225 196 211 210 217 225 225 223 209 219 228 221 207 200 206 194 197 190 179 182 187 186 177 177 175 172 161 146 137 124 108 88 81 79 80 70 56 48 22 0 10 54 32 107 106 33 234 328 359 340 7 21 5 1 358 4 0 3 1 355 347
347 354 354 350 347 345 349 345 341 341 339 334 331 331 325 328 323 326 321 320 313 303 260 220 216 202 208 221 224 223 217 212 210 209 214 215 195 191 207 196 184 187 186 185 190 182 176 170 178 168 160 146 136 115 91 86 81 81 72 57 49 37 18 10 354 356 27 350 91 70 355 342 336 319 326 337 325 335 360 2 350 357 353 357 357
340 341 354 351 346 347 344 346 342 340 334 334 336 328 330 328 327 323 315 319 312 301 253 219 212 190 204 218 212 218 215 230 216 215 209 213 203 203 211 230 179 211 202 193 188 175 169 172 177 166 159 135 113 95 86 84 73 59 54 56 63 53 16 20 7 1 3 0 15 348 322 295 304 309 316 325 324 326 343 346 355 348 350 356 356
341 340 340 352 347 340 344 343 342 337 333 335 336 332 328 332 333 322 312 313 311 297 253 223 174 192 199 207 215 212 201 202 216 212 212 211 212 199 209 210 206 204 181 229 173 162 164 182 178 168 150 121 112 96 93 92 38 40 46 45 61 83 51 20 358 5 337 328 345 300 324 319 301 305 314 296 356 355 1 328 331 335 330 352 337
332 332 331 337 344 344 341 341 339 337 337 331 337 332 330 338 333 327 315 309 306 297 260 221 193 199 203 202 213 216 206 201 219 217 219 216 217 201 215 231 230 245 205 213 173 169 177 175 167 139 124 120 111 104 109 87 63 39 50 42 25 27 38 134 113 330 318 331 322 329 344 338 357 1 356 6 12 20 343 347 356 347 3 305 338
317 321 332 337 342 344 340 340 340 338 342 337 340 335 337 339 337 329 319 314 300 301 268 214 192 184 205 209 216 221 213 206 215 223 213 207 216 204 189 201 198 208 229 190 146 144 162 158 128 116 123 126 116 114 121 119 88 45 281 34 45 13 335 347 11 355 350 336 351 2 4 359 353 347 335 327 325 345 336 324 321 328 358 347 8
315 341 342 334 338 342 341 338 335 340 345 341 336 335 336 340 341 332 322 316 310 302 267 212 185 176 173 205 224 232 226 221 219 229 223 204 207 209 201 188 204 199 196 158 147 159 162 152 129 115 127 97 113 127 132 145 152 179 251 151 340 3 357 359 359 9 18 13 5 4 359 15 354 339 352 320 304 315 340 325 342 28 31 29 24
341 339 339 335 331 340 342 343 338 338 347 347 333 334 338 333 337 335 333 320 316 308 266 200 160 143 173 198 212 232 220 210 218 228 225 203 203 196 191 189 193 202 165 178 174 139 152 142 129 138 127 128 125 122 127 147 164 201 267 356 17 24 22 15 27 27 20 32 22 19 18 30 29 6 4 9 4 27 29 24 56 52 43 40 40
328 332 339 341 339 338 343 344 339 339 340 350 340 338 337 336 338 342 332 324 323 317 306 56 86 87 62 35 286 229 226 219 220 225 219 204 206 192 184 194 188 194 165 157 160 157 139 124 129 125 121 126 132 141 147 145 137 113 27 19 14 29 26 50 46 59 67 61 47 34 35 34 35 40 39 44 45 55 47 56 58 67 66 56 54
334 337 338 340 341 341 339 345 340 337 339 345 348 341 336 337 344 343 334 334 326 314 317 341 51 109 99 83 36 24 312 262 239 228 217 205 206 189 190 195 193 191 173 145 158 151 142 138 133 139 143 161 148 144 135 109 107 113 100 67 48 56 40 61 70 71 68 68 54 36 36 38 36 38 48 51 55 53 58 60 61 59 62 59 55
330 324 332 337 334 338 339 345 344 340 341 348 352 345 338 341 346 343 329 336 329 315 320 331 321 91 72 56 55 54 30 325 257 235 230 204 162 119 113 13 249 183 134 139 169 159 151 140 152 155 162 151 135 140 123 119 105 95 97 77 65 68 74 85 86 83 81 73 65 53 41 40 43 37 39 49 48 48 49 51 55 55 54 53 50
328 332 336 333 333 335 335 341 346 344 346 347 355 344 340 345 345 340 329 340 332 323 324 326 317 27 81 75 56 47 49 25 331 269 204 120 117 131 82 105 80 104 128 126 133 154 162 159 163 173 136 114 130 129 118 107 100 91 88 86 84 80 78 74 78 79 79 68 64 57 48 43 44 41 38 44 47 46 48 50 51 52 51 50 47
340 339 338 335 336 337 331 338 345 344 346 355 354 345 345 348 343 343 343 345 335 331 332 333 317 20 44 47 54 48 44 37 24 352 3 101 82 75 64 55 37 14 76 99 78 65 80 118 138 119 115 109 84 69 76 93 87 91 94 89 88 86 79 75 69 67 66 64 61 50 46 43 45 45 41 41 46 47 50 50 50 51 49 48 46
328 325 329 337 342 338 338 342 348 347 342 5 352 344 338 351 348 343 348 344 339 332 347 352 343 16 35 42 29 49 57 45 33 29 349 31 67 73 67 45 28 17 51 74 89 86 81 97 98 104 101 99 99 92 86 81 90 86 88 89 92 85 82 77 72 66 65 68 68 58 54 42 44 42 45 43 43 45 46 47 47 48 47 45 44
320 325 331 344 345 339 346 345 354 350 345 15 356 342 340 354 354 342 351 358 357 347 345 346 0 8 29 38 28 26 39 33 25 43 49 8 43 60 50 50 27 41 52 60 70 56 72 70 75 90 79 87 84 73 84 84 74 69 71 80 83 83 80 75 71 64 60 59 56 57 54 52 46 43 44 44 43 44 45 47 45 44 43 42 41
312 321 337 331 343 346 351 346 356 353 340 19 354 341 341 355 347 350 356 9 6 358 346 356 12 356 26 48 46 37 28 33 22 13 62 62 11 47 42 37 36 42 45 43 65 56 54 53 47 86 84 81 82 74 81 78 76 65 58 65 72 73 76 78 75 74 69 65 60 55 45 42 41 44 46 47 44 44 43 44 44 42 39 38 37
327 322 327 337 334 346 346 349 357 357 339 16 347 339 341 345 343 2 6 14 15 8 352 358 3 7 32 39 42 50 42 29 22 24 31 61 42 32 32 17 21 48 52 46 52 55 53 50 26 60 101 80 83 71 67 74 63 62 47 51 63 67 70 69 73 72 74 72 62 57 54 46 37 41 48 48 45 43 44 43 41 40 37 34 34
325 340 342 342 342 346 347 358 359 349 357 1 340 340 336 347 360 4 20 22 21 14 353 3 2 17 32 30 31 48 52 47 40 30 44 45 52 28 19 23 21 35 44 45 49 37 55 63 40 21 61 104 92 88 74 69 72 65 61 52 46 51 52 50 57 70 71 70 66 57 57 50 44 41 45 50 46 45 41 42 40 39 35 33 32
325 341 344 348 344 352 348 358 353 9 3 332 340 333 331 342 12 8 28 30 22 6 3 11 9 22 31 27 14 54 56 53 49 42 30 65 62 52 34 32 35 39 48 49 51 47 46 60 66 37 37 78 89 97 95 88 83 78 70 66 59 61 65 68 72 72 73 76 71 65 62 58 53 47 48 52 54 50 45 41 40 37 34 31 30
333 344 349 347 347 360 343 353 356 359 340 333 326 331 332 342 2 16 35 32 19 358 11 27 8 14 37 15 14 45 50 50 50 48 18 50 62 55 42 29 36 48 51 47 39 43 51 50 63 68 56 53 81 92 101 100 92 85 77 68 65 63 61 62 61 61 65 68 68 65 61 57 55 49 48 49 52 52 49 45 39 35 29 29 28
335 348 352 357 356 358 352 346 356 342 317 317 332 338 341 356 5 16 33 25 5 349 18 34 354 18 25 21 29 39 45 48 51 55 39 55 60 56 51 35 32 49 55 52 46 48 53 65 59 76 84 70 58 79 95 106 99 93 93 89 78 74 67 66 60 58 63 64 64 63 64 63 57 51 49 49 52 54 51 47 43 37 31 24 27
342 354 357 356 356 352 353 351 335 332 333 333 352 357 4 351 13 27 33 9 352 1 27 24 332 26 23 30 32 40 46 46 45 54 50 50 50 52 49 37 32 43 48 47 43 51 57 65 74 51 81 90 56 27 24 109 110 93 84 80 75 68 70 61 60 58 57 59 61 61 60 61 59 56 52 51 52 54 54 49 44 39 32 27 24
346 357 5 346 343 346 359 344 336 342 345 334 330 344 20 31 18 19 12 14 6 9 20 354 11 30 26 26 39 43 48 44 37 49 52 49 52 54 55 40 30 40 50 48 46 44 47 55 72 77 44 71 69 6 1 164 94 122 125 101 84 80 70 62 54 50 52 54 56 60 57 57 56 54 54 54 54 53 53 51 46 39 35 33 26
324 345 351 354 346 348 349 351 345 341 336 326 336 349 0 31 59 40 348 56 36 34 12 11 25 38 33 33 36 39 44 43 39 44 56 55 54 57 61 52 42 39 53 49 45 47 40 47 48 92 96 62 78 29 12 347 120 100 105 109 132 120 93 69 62 54 48 52 52 55 52 53 50 49 48 52 53 54 54 50 46 41 37 34 29
348 348 354 359 354 346 342 344 346 347 350 349 345 341 350 6 22 143 104 71 33 11 29 18 33 37 38 40 44 41 43 45 42 52 61 65 64 61 61 58 52 45 57 62 52 45 41 42 45 42 53 91 48 43 20 18 29 111 135 100 147 116 102 53 60 62 54 47 50 52 48 46 45 44 46 48 46 48 53 54 47 44 40 36 32
340 344 346 346 346 344 340 343 344 354 352 355 353 354 359 5 354 359 5 7 25 17 358 29 24 27 34 32 27 36 46 52 49 46 53 59 60 63 64 62 63 57 59 63 60 55 51 48 46 60 55 101 90 75 39 39 49 19 103 133 115 95 74 136 113 46 27 53 45 52 54 46 43 43 45 48 50 48 51 52 51 45 41 36 32
332 325 328 327 343 341 353 351 353 356 1 356 353 358 13 23 12 20 12 359 15 7 19 7 359 10 21 20 31 29 32 38 30 45 48 51 58 58 59 55 55 64 60 65 70 64 53 52 35 55 78 72 105 85 79 44 58 53 53 42 349 180 159 188 199 122 57 71 78 59 54 56 46 44 40 41 42 46 45 51 46 45 39 36 29
299 316 328 340 343 343 345 358 353 350 354 356 358 5 20 22 26 33 32 14 27 21 1 0 9 18 29 37 37 33 33 40 40 41 47 51 58 57 60 58 52 42 46 61 60 49 53 54 47 58 58 71 84 91 85 113 72 45 40 48 62 43 54 132 145 111 116 89 70 51 45 50 57 47 44 41 35 37 42 49 46 45 41 37 31
289 321 326 335 348 341 337 345 350 352 354 344 12 18 35 24 28 26 36 40 35 17 357 2 3 11 43 36 39 41 39 39 44 43 41 45 52 53 58 65 65 55 51 57 58 53 62 54 57 63 67 61 75 100 104 33 99 50 4 52 54 50 52 48 57 163 137 146 111 97 82 25 60 56 44 35 30 30 30 47 46 44 43 35 33
288 291 302 306 312 329 337 345 355 358 348 355 6 15 28 38 33 33 47 20 27 14 359 10 22 10 44 25 32 29 32 34 38 43 41 41 43 51 50 53 54 51 52 58 53 51 54 59 53 54 59 56 55 66 89 79 83 116 111 70 68 64 54 46 36 48 107 125 84 52 348 346 271 57 34 34 22 30 24 40 51 47 39 32 32
265 276 290 307 316 336 354 357 350 346 343 357 9 15 18 26 49 38 66 39 13 8 25 33 28 22 51 34 29 31 24 30 29 31 38 34 40 43 50 53 56 57 55 63 63 59 55 57 51 60 59 70 50 62 74 72 60 51 47 86 87 81 58 47 23 28 47 54 107 82 5 346 6 340 20 14 8 359 11 28 48 47 38 37 33
288 291 286 292 300 334 341 341 312 327 351 356 11 19 16 29 36 30 33 34 9 21 47 33 18 36 53 43 41 40 37 40 32 35 35 30 38 40 46 49 49 49 50 50 50 53 50 56 55 59 60 67 67 72 73 65 71 67 59 65 70 68 87 97 68 51 82 101 93 57 43 35 305 320 349 352 345 341 335 4 66 60 52 37 38